RH
78 82 81 82 81 78 75 80 85 78 77 76 67 62 59 53 52 53 52 51 49 50 51 50 50 52 53 54 57 57 59 64 63 56 54 57 61 67 69 69 67 64 62 60 60 61 61 60 60 58 56 56 54 53 54 55 56 58 59 58 59 58 57 59 60 57 56 54 51 47 44 46 49 51 51 49 51 53 51 48 50 53 53 54 53 53 54 57 58 52 49 50 51 51 52 54 56
82 85 82 82 82 79 75 80 83 76 76 72 63 58 55 55 57 55 51 50 48 45 46 47 49 51 52 53 51 51 56 58 55 49 47 54 61 64 65 68 69 65 60 60 60 59 58 59 59 58 57 55 54 54 54 55 55 56 58 59 59 59 57 59 59 54 54 53 52 51 50 51 52 53 53 50 51 53 51 47 50 54 53 53 53 53 54 56 58 54 50 52 52 53 53 51 53
85 88 83 81 81 81 76 79 84 81 78 71 64 57 57 62 59 53 50 50 47 46 47 48 50 52 51 50 46 46 49 47 44 43 47 56 58 57 60 63 64 63 61 62 60 57 57 59 59 56 55 54 55 55 54 55 55 55 56 59 60 59 58 58 58 55 55 55 54 53 53 55 54 54 53 50 51 53 53 51 51 54 53 53 54 55 55 57 58 54 52 55 54 54 54 52 52
82 87 84 80 79 81 80 82 83 83 81 71 65 62 61 60 54 50 50 50 51 52 52 50 50 51 50 48 45 42 45 43 41 44 49 53 52 53 58 62 62 61 63 64 59 53 55 58 57 55 54 54 54 54 53 54 56 56 56 59 60 58 57 57 56 56 55 56 56 56 57 60 58 55 54 53 53 54 56 55 52 53 53 54 55 56 57 60 60 56 55 55 54 54 54 53 52
83 87 85 82 81 83 84 84 80 80 82 72 67 64 58 54 50 50 50 53 54 53 53 52 51 51 51 51 44 39 42 42 42 45 47 48 49 51 57 61 59 58 59 61 57 51 53 55 55 54 53 54 54 54 54 55 56 56 57 59 61 58 57 56 56 56 55 55 58 59 60 61 58 56 55 55 56 57 58 58 55 53 54 55 56 56 57 59 59 57 56 54 52 53 54 53 51
85 88 86 85 82 82 85 85 83 81 76 68 65 59 54 53 50 50 49 52 54 50 50 52 51 49 49 50 47 44 46 44 42 43 43 46 47 48 53 57 57 56 55 54 52 47 47 50 52 52 52 52 52 52 54 56 57 56 57 59 60 60 59 60 61 60 57 57 59 59 60 61 60 59 56 55 57 59 60 60 58 58 58 57 58 56 56 57 55 55 56 54 50 50 51 48 46
84 88 86 87 83 82 86 86 82 77 72 66 62 55 51 52 50 48 48 49 50 49 48 48 46 47 48 49 49 50 49 44 41 41 43 43 42 44 48 52 53 56 58 57 51 43 44 46 46 48 49 50 48 50 53 56 58 57 57 59 60 61 62 63 64 62 61 61 61 61 63 63 62 61 58 56 59 62 62 62 62 62 61 58 58 58 57 56 55 54 54 51 47 45 42 38 35
83 87 86 87 86 84 87 86 80 76 74 67 59 52 47 48 52 50 50 51 51 52 51 49 47 47 51 50 49 52 48 41 38 39 40 40 41 43 45 48 50 55 60 59 52 44 46 48 48 49 50 51 50 52 56 57 59 59 59 60 60 61 64 66 65 63 65 65 64 64 66 65 62 61 61 60 62 65 65 63 63 63 62 59 57 56 56 54 53 52 50 47 43 40 34 29 25
82 86 88 87 88 84 84 85 78 76 76 66 54 49 46 48 53 52 53 53 53 56 55 55 51 47 51 46 45 47 43 39 37 37 38 40 43 44 46 48 52 56 59 56 51 48 50 53 53 54 55 57 57 58 61 61 62 64 62 62 62 63 67 67 65 65 68 68 67 66 65 65 62 63 64 64 65 65 65 63 63 64 61 58 56 55 54 51 49 48 48 45 41 35 27 22 20
83 85 87 87 88 85 85 84 75 78 74 60 52 48 49 50 53 54 53 53 55 58 56 57 53 47 48 44 45 43 38 39 37 37 40 42 44 46 48 52 56 60 62 60 56 54 54 55 55 56 58 58 58 60 63 64 64 65 65 66 66 67 68 65 65 66 69 69 67 65 64 65 65 66 66 65 64 63 63 61 61 62 59 57 55 54 52 49 47 47 47 41 34 28 23 20 20
86 86 85 87 88 85 87 84 76 79 73 59 55 51 48 48 53 55 55 55 57 58 54 55 53 49 47 44 46 40 37 39 37 38 41 42 44 47 50 55 59 61 63 64 62 59 56 56 56 57 58 57 57 60 64 66 66 66 66 68 70 70 67 64 67 67 70 69 65 64 64 66 66 66 65 62 61 61 61 59 59 59 58 56 53 52 51 48 46 46 41 33 27 24 23 22 22
88 87 86 87 87 86 86 85 80 76 71 66 59 50 48 51 53 54 57 57 58 59 56 55 54 51 46 40 40 38 41 41 37 37 37 41 44 47 52 56 59 61 64 65 63 60 59 59 58 60 60 59 61 64 67 68 69 70 69 71 73 71 69 68 67 67 70 67 63 64 65 65 64 63 63 60 59 59 58 57 56 56 55 53 50 51 51 47 45 41 33 27 27 25 25 25 26
87 87 86 87 87 88 85 84 82 75 71 67 56 48 50 54 54 53 58 56 57 62 60 57 54 50 43 38 39 42 44 41 37 36 38 42 44 46 52 55 58 64 64 64 64 61 61 60 61 62 61 62 64 66 69 70 71 71 70 72 73 71 70 69 67 66 67 65 63 65 65 64 62 60 60 58 56 56 54 53 51 50 49 49 49 51 52 47 40 34 29 28 28 27 27 27 26
83 85 86 87 88 89 86 83 82 80 74 64 52 48 52 54 51 52 57 58 60 60 58 59 56 50 41 38 44 46 42 38 37 39 42 44 44 48 53 56 61 67 65 65 65 63 63 63 64 66 64 68 69 69 70 71 73 71 71 73 72 71 70 68 66 66 64 63 64 65 65 64 60 58 57 56 54 53 52 51 49 46 45 43 44 48 48 42 33 29 28 29 29 29 28 26 24
77 84 88 86 86 86 86 86 86 83 73 62 53 48 48 47 48 55 57 59 58 54 58 62 59 49 41 40 45 44 38 35 39 42 44 45 47 52 58 63 64 69 68 65 64 61 63 62 64 69 69 72 73 71 71 71 73 72 74 74 71 72 70 69 67 65 63 63 64 62 62 60 58 57 56 55 53 51 49 47 45 43 39 37 39 41 39 33 29 29 30 30 30 28 25 24 24
71 82 88 84 84 83 85 88 87 83 70 62 55 45 42 41 49 58 53 52 53 53 59 62 58 50 44 44 43 38 36 37 40 42 43 45 50 55 62 67 67 71 69 63 62 60 64 65 64 71 71 71 73 73 72 70 70 70 73 73 72 72 71 70 66 64 63 62 61 57 54 52 49 49 51 54 52 49 44 40 38 36 33 33 34 33 29 28 29 30 31 30 27 25 25 26 27
69 79 87 87 87 85 85 85 83 81 72 61 54 45 42 41 45 46 44 48 49 50 53 53 53 52 48 46 41 36 36 38 40 41 43 45 52 60 64 67 66 68 67 62 60 60 66 67 64 71 71 70 72 73 73 71 70 70 70 72 72 71 69 67 64 63 61 58 55 50 46 43 42 42 43 46 46 43 38 33 30 30 30 31 31 27 27 28 30 30 29 27 25 26 28 29 31
65 75 84 85 85 85 84 83 80 77 70 60 55 48 42 39 36 36 42 46 44 45 49 46 50 57 53 43 38 37 37 38 39 40 43 46 56 65 66 66 64 64 64 58 59 61 63 65 64 68 69 69 71 73 75 73 71 72 73 73 71 68 66 64 62 61 59 55 52 47 43 40 39 38 38 38 38 35 31 28 26 27 28 30 28 27 28 29 29 29 28 27 28 29 30 31 33
61 70 79 78 79 83 80 81 79 74 67 61 60 52 41 37 34 38 45 44 42 46 48 50 55 59 51 39 37 38 38 37 38 40 45 52 61 66 66 66 64 64 63 56 58 61 60 62 61 62 66 68 69 72 74 71 71 74 76 76 72 67 64 62 61 60 58 56 53 47 43 41 37 33 33 33 33 30 27 25 25 27 28 28 28 28 28 28 28 28 28 29 29 29 30 33 35
58 66 77 78 77 79 77 79 78 74 69 65 65 57 44 39 41 47 50 46 46 47 48 53 56 53 43 37 37 36 37 38 39 44 50 61 68 67 67 67 64 65 64 57 54 56 55 57 58 59 65 66 65 68 70 68 69 70 70 70 70 65 62 61 61 60 60 57 52 49 45 39 33 29 29 28 28 27 26 26 26 28 28 27 27 27 27 26 27 29 29 31 31 33 34 36 37
55 64 73 77 76 76 73 76 78 73 72 72 69 63 49 43 48 54 54 51 50 48 49 52 52 46 38 36 36 36 40 40 43 51 55 63 69 68 69 67 64 63 63 60 53 52 53 54 55 57 61 61 60 63 64 65 67 66 65 66 66 62 60 61 62 63 62 58 53 50 45 37 32 29 25 24 25 25 25 25 26 27 27 27 28 28 28 28 29 32 33 35 38 39 39 37 39
53 65 70 71 75 77 71 73 77 71 70 74 73 68 55 48 51 54 56 56 53 50 50 52 51 45 39 36 36 38 41 43 51 58 57 61 64 63 65 65 64 63 64 62 54 53 56 55 56 56 58 61 57 58 60 62 63 64 64 64 64 61 61 61 62 64 63 61 55 48 44 40 37 32 27 27 27 27 27 26 26 28 30 30 31 31 33 33 34 37 38 41 41 39 40 40 42
49 63 68 67 71 72 69 69 73 72 70 73 75 73 64 57 55 53 57 60 55 52 51 51 51 47 42 39 40 42 44 49 56 59 57 58 60 58 59 59 60 62 61 60 55 54 56 56 56 55 58 60 55 56 60 61 60 60 61 61 64 63 62 61 61 63 62 60 53 48 47 43 40 38 37 36 35 34 32 31 31 33 35 36 36 38 38 40 41 41 42 44 41 37 37 41 42
44 57 62 62 64 64 64 66 70 73 73 75 74 72 71 68 59 53 56 58 53 51 51 50 50 49 45 43 45 48 50 55 59 59 57 57 57 55 54 53 56 60 59 58 57 54 53 54 55 54 56 56 56 58 61 61 58 57 59 61 63 62 62 61 58 58 57 54 50 48 47 45 43 44 47 46 44 43 38 38 40 41 41 40 42 44 44 45 44 44 44 44 43 42 40 40 41
47 55 58 59 60 61 62 64 70 75 77 78 76 74 74 71 62 54 52 52 50 50 53 50 50 50 49 50 51 52 56 59 60 60 57 56 55 51 50 51 55 59 58 59 60 57 54 54 55 54 55 56 57 59 60 60 58 59 62 63 63 62 64 64 56 54 53 51 49 47 45 46 46 46 53 56 52 48 44 44 46 47 46 44 45 46 46 45 45 45 45 46 46 48 44 39 40
51 54 58 62 61 60 62 67 71 75 79 80 77 77 76 70 64 58 50 49 49 50 54 50 50 53 54 55 52 52 57 60 61 60 57 56 52 47 47 48 53 58 57 57 59 57 56 56 55 55 57 59 57 56 58 57 57 61 62 63 63 61 61 60 55 52 52 51 48 45 44 46 46 48 54 55 53 51 48 49 51 50 46 44 46 48 48 47 47 47 45 48 48 48 46 43 43
50 54 61 64 64 61 63 71 74 75 78 79 78 78 74 68 66 62 51 48 47 50 54 51 51 55 56 57 53 53 57 59 61 59 58 56 49 44 44 47 51 55 57 57 58 59 59 57 54 53 56 59 58 57 57 56 58 62 62 62 60 56 55 56 54 52 51 50 48 46 45 46 47 50 50 48 50 53 50 51 53 51 45 44 46 50 51 50 50 48 48 52 50 46 45 45 45
49 57 66 66 64 64 67 77 80 77 79 81 80 80 74 68 66 60 51 46 46 50 54 51 52 54 57 59 57 56 57 58 60 58 57 54 47 43 43 48 50 51 55 56 55 58 60 56 51 52 55 56 58 58 56 55 59 63 62 59 55 51 53 52 52 53 50 48 47 46 47 49 49 48 48 48 50 52 51 51 51 50 48 46 46 48 49 49 48 47 50 51 46 44 44 44 45
48 58 68 69 66 66 71 81 84 82 84 82 79 80 75 70 66 58 51 47 48 50 51 51 51 52 56 60 59 57 56 56 57 57 56 52 46 43 42 46 47 49 52 50 53 57 56 52 48 51 54 52 53 55 54 53 55 59 57 53 52 51 51 49 49 48 44 44 46 45 46 48 48 47 49 51 51 51 50 49 48 48 51 50 47 47 47 46 43 43 45 43 41 43 46 46 46
53 59 63 67 68 69 70 78 83 80 83 81 80 82 75 71 68 59 53 51 52 51 49 52 51 51 56 60 61 60 56 54 56 54 53 50 44 42 42 43 45 48 49 48 52 54 51 48 46 47 49 50 50 51 50 49 51 53 50 49 51 51 48 47 45 38 35 40 43 44 46 45 43 44 49 52 53 52 49 49 48 47 50 49 45 45 46 45 42 43 43 40 41 42 43 48 50
56 58 61 63 66 73 70 71 76 75 79 77 76 82 79 74 70 62 58 55 55 53 48 52 53 51 56 58 60 62 55 53 57 53 49 47 41 41 41 41 44 46 47 49 52 51 47 46 45 44 47 49 47 46 45 45 45 44 45 48 50 48 45 42 39 36 36 40 40 41 45 44 41 44 48 51 52 51 50 49 48 48 48 47 47 47 46 45 44 47 45 43 46 44 41 48 54
56 56 61 61 63 72 70 66 69 71 78 78 73 77 79 78 71 66 66 60 59 57 50 51 54 53 57 57 58 62 57 56 60 54 49 46 40 40 39 40 44 44 45 49 49 48 46 45 43 42 44 45 43 43 42 41 39 39 43 45 44 43 40 37 37 40 43 44 42 40 39 40 44 48 47 49 50 49 50 50 48 49 50 50 50 49 45 43 44 47 49 47 49 49 45 49 50
54 57 58 60 62 69 70 68 66 67 73 77 77 77 77 77 74 71 72 67 63 62 55 52 54 54 57 57 58 62 60 59 60 54 50 48 40 36 38 40 42 42 45 47 45 44 44 44 42 42 41 40 41 41 40 39 38 39 42 43 41 39 37 39 42 45 47 48 45 40 38 39 42 45 46 50 52 50 49 48 47 49 53 50 49 50 48 46 45 46 50 52 52 50 51 54 50
51 53 54 58 61 67 73 73 68 65 66 71 76 76 75 75 75 76 75 68 65 65 61 60 59 55 56 57 57 63 63 60 60 55 50 47 40 35 38 41 41 42 45 44 43 44 43 42 43 42 39 37 39 40 41 41 40 40 42 42 41 39 40 45 47 47 48 50 46 41 40 40 39 41 46 52 55 53 51 49 48 50 54 51 49 52 52 50 48 46 48 52 53 52 52 55 52
48 50 51 55 59 63 73 74 69 65 65 70 74 75 76 75 73 77 77 71 67 65 65 69 67 59 56 56 57 64 64 61 60 56 52 48 42 37 38 41 41 43 44 42 43 42 41 42 42 41 39 37 37 38 41 40 40 43 44 43 44 45 46 48 49 48 46 48 47 43 41 39 38 40 47 52 53 52 52 52 49 49 52 51 51 52 49 48 48 46 47 49 51 53 52 53 54
46 49 48 51 56 60 66 68 67 66 65 68 71 71 76 76 71 73 78 77 71 66 67 70 70 65 58 53 56 64 65 62 59 56 54 49 42 39 39 39 40 43 43 42 42 40 41 43 40 37 39 36 33 35 39 38 41 45 48 49 48 49 51 51 53 53 48 47 46 43 41 40 38 40 45 50 51 48 50 51 48 47 48 48 51 53 49 47 47 47 47 46 46 48 48 49 52
45 48 47 48 53 57 59 60 62 64 64 66 69 70 74 75 70 69 76 78 73 68 68 68 70 69 61 52 55 63 65 63 61 59 58 52 43 40 39 38 39 42 42 42 42 41 42 43 37 35 38 35 31 34 35 38 43 44 48 53 50 50 53 53 53 53 50 50 49 45 43 41 40 41 42 45 48 47 48 48 46 49 51 48 51 53 48 45 46 47 45 43 46 47 45 46 47
45 46 47 46 50 57 57 55 56 61 63 65 69 71 73 75 72 68 70 77 76 71 67 67 69 72 64 55 54 60 63 62 62 63 60 55 46 41 40 38 37 41 42 42 42 42 43 42 36 35 36 33 32 33 33 38 44 44 47 52 53 52 52 52 52 52 52 50 48 45 43 42 41 43 44 44 45 45 45 44 43 48 50 46 46 46 42 41 45 47 44 42 46 47 46 46 46
43 43 44 44 49 55 56 55 54 59 62 64 68 71 72 77 77 71 68 73 77 74 70 65 66 72 68 58 54 58 62 62 64 64 60 58 51 41 40 39 38 41 42 42 43 44 44 42 36 34 35 32 33 34 34 38 42 44 46 51 54 52 52 54 53 52 54 50 44 41 42 42 41 43 44 44 45 44 43 43 43 45 45 42 41 42 40 39 44 47 45 43 45 46 44 45 46
31 33 36 41 46 48 54 58 56 58 60 61 65 66 68 75 78 74 70 72 75 75 74 67 65 70 70 63 56 56 61 62 63 64 64 64 53 41 40 40 40 41 41 42 44 45 44 41 37 35 34 32 32 34 36 39 41 44 46 50 53 52 51 53 52 51 52 50 45 42 41 41 42 43 43 44 45 44 44 45 43 43 43 41 40 42 42 42 44 45 44 44 45 46 45 45 46
22 26 28 34 41 43 48 54 53 56 60 61 62 62 65 71 76 75 70 70 73 74 77 73 68 67 68 66 59 56 58 59 61 64 67 66 53 41 40 40 40 40 40 41 43 45 44 41 37 35 33 32 31 32 36 40 40 43 48 50 51 51 52 52 52 51 51 49 46 45 42 40 43 45 44 47 47 44 45 46 45 43 42 41 40 42 45 45 45 43 43 42 44 47 48 49 50
21 25 25 28 32 33 40 47 47 52 61 65 62 60 65 68 70 72 70 69 70 71 75 76 71 67 67 65 60 58 56 56 60 61 64 67 54 42 41 39 39 39 38 41 42 43 45 42 38 35 32 32 32 30 33 37 35 38 46 49 48 49 51 51 51 51 51 50 48 47 44 41 46 48 45 47 46 42 43 44 44 44 43 41 41 43 46 46 46 47 46 42 44 47 49 52 53
18 24 27 29 29 30 37 43 43 48 56 60 60 62 69 70 67 68 69 69 68 66 69 74 73 68 65 63 60 58 55 54 57 60 64 67 54 42 42 39 37 38 37 39 41 41 44 44 37 33 31 32 32 29 31 33 31 34 42 45 45 46 47 47 49 50 50 51 51 51 48 44 46 49 46 45 44 42 42 42 42 44 45 44 42 43 45 47 47 49 50 47 46 47 46 48 51
15 23 28 29 33 36 38 39 39 44 48 50 54 61 66 69 67 67 69 70 69 66 64 69 71 68 65 63 59 56 54 51 53 60 66 66 54 43 42 40 36 37 36 36 39 39 43 44 37 32 29 31 32 28 28 29 28 32 38 42 44 43 45 46 48 50 49 49 52 51 49 47 47 50 49 44 42 41 41 41 41 43 47 45 43 43 45 48 50 49 48 47 45 42 43 45 47
12 20 22 23 30 34 34 36 36 38 42 44 50 58 61 63 66 69 71 71 69 65 61 64 68 69 67 63 59 57 55 50 50 60 64 61 57 46 42 41 36 35 35 35 37 38 42 44 38 33 29 30 31 26 24 26 26 30 36 41 41 40 45 47 49 52 51 50 50 48 49 49 45 49 51 45 41 40 39 40 40 41 43 43 41 43 45 48 50 47 42 42 42 40 44 46 46
12 16 16 18 21 22 25 30 32 35 37 36 42 52 56 61 67 68 69 68 65 61 60 61 66 70 69 64 60 58 58 51 49 58 60 58 60 52 43 42 38 35 35 35 37 38 42 44 39 33 30 31 31 25 23 25 26 27 33 40 41 41 46 46 48 51 50 49 49 47 48 47 43 45 46 42 40 40 39 39 40 40 41 42 43 45 47 47 46 42 39 41 43 41 42 45 47
13 13 14 14 14 16 18 22 29 35 37 35 38 46 51 59 66 66 65 63 60 58 57 60 65 69 67 64 61 59 59 52 49 56 59 59 62 55 49 45 39 40 38 35 39 39 41 43 39 35 31 32 32 26 24 25 25 26 29 36 41 43 45 44 47 49 46 45 46 45 44 43 44 45 44 40 39 40 40 39 40 41 42 45 45 44 47 48 47 45 44 46 45 41 42 43 46
12 11 12 12 14 20 22 27 35 38 38 41 46 49 53 60 63 61 62 59 56 57 54 55 62 66 64 63 63 60 58 54 50 52 55 61 62 58 58 52 42 45 44 37 38 41 42 43 41 37 33 33 33 28 25 24 25 26 27 33 38 41 43 44 44 44 43 41 41 44 44 41 44 48 47 44 41 41 42 40 40 42 44 45 45 44 46 50 51 51 50 50 48 43 43 43 42
17 14 14 14 18 29 34 38 44 41 41 51 56 56 54 55 58 59 60 59 57 55 53 53 57 62 64 65 65 61 58 57 52 49 51 56 60 59 63 58 46 45 46 40 38 41 44 45 42 38 34 34 35 31 28 25 25 25 27 30 33 35 41 45 44 42 42 40 40 45 44 41 42 45 48 48 45 44 44 40 39 42 43 42 43 42 42 45 48 51 52 52 49 46 47 46 43
29 25 25 24 25 34 38 40 43 41 48 59 59 57 54 50 53 58 60 59 57 56 56 56 56 59 64 67 65 60 58 59 55 52 50 51 56 59 59 56 49 45 44 41 39 40 44 47 45 40 35 35 37 35 32 30 28 27 26 27 29 30 34 41 42 41 41 39 39 43 45 44 42 41 45 48 47 48 47 43 38 40 40 38 38 37 37 37 39 42 45 46 47 48 48 46 43
33 33 33 32 32 35 35 38 42 42 51 60 56 54 58 56 55 58 59 59 60 61 59 59 57 57 62 67 66 60 58 61 59 55 50 48 52 56 55 53 50 48 44 41 39 39 43 47 46 42 36 35 37 37 35 34 32 29 27 28 28 27 29 33 35 37 41 42 41 43 47 48 45 42 43 44 46 47 48 46 41 38 38 36 34 34 34 35 36 37 37 38 40 44 46 45 44
31 31 31 33 36 37 36 38 41 40 47 56 53 51 57 59 58 58 59 60 66 69 63 59 59 58 61 67 68 63 61 61 60 55 52 49 48 52 55 53 48 49 49 42 38 39 42 46 46 41 37 36 37 38 36 35 34 33 31 30 31 30 29 31 33 33 38 43 42 42 45 46 47 48 46 42 42 42 44 45 43 40 39 37 34 34 34 36 38 38 38 37 37 40 45 46 46
30 30 32 37 39 38 38 39 42 43 45 49 49 49 54 59 59 60 61 63 69 73 65 59 60 60 61 65 66 66 66 61 57 56 54 50 46 49 54 49 43 48 51 45 38 39 41 44 46 43 38 37 38 38 38 37 35 37 36 33 34 35 34 35 35 33 36 40 41 41 43 45 47 49 48 45 43 40 40 43 44 44 44 41 39 38 37 37 38 38 38 39 38 40 42 43 43
32 35 38 43 43 43 42 40 44 48 47 48 50 51 57 64 65 63 63 63 67 70 66 60 59 59 61 64 65 69 71 64 58 58 59 53 46 48 51 46 43 47 52 48 41 38 41 42 45 45 41 39 39 39 40 40 37 39 40 36 35 37 38 39 40 39 39 40 40 40 43 46 46 44 46 49 49 43 39 39 40 44 47 45 43 44 44 42 40 40 39 38 38 39 39 38 37
34 37 39 41 46 51 50 47 48 52 52 50 50 51 57 66 68 66 67 67 67 69 69 65 63 60 59 61 65 71 73 68 60 58 62 58 48 44 47 47 45 46 52 53 45 40 40 42 44 46 43 41 41 42 43 44 41 42 43 40 38 38 40 42 43 44 43 42 43 42 42 44 45 44 44 46 47 46 45 42 39 40 44 45 45 46 45 44 43 42 41 40 42 45 44 41 38
38 38 38 38 40 44 50 50 49 54 57 54 53 54 59 64 66 69 71 69 67 68 69 70 69 66 62 61 62 67 72 72 66 63 64 61 51 43 43 45 45 45 50 52 46 41 40 40 43 45 45 43 42 43 45 46 45 45 45 44 41 39 40 43 44 45 46 48 48 46 45 45 45 45 46 45 44 46 49 49 44 42 44 47 49 50 49 47 46 44 43 43 46 49 50 48 45
42 44 43 41 39 39 43 47 48 49 53 56 58 59 62 64 65 68 69 66 65 65 66 68 71 70 68 65 63 65 71 74 72 70 68 62 56 48 43 44 46 45 48 49 45 41 40 39 41 43 44 43 41 42 44 45 45 46 45 45 44 44 43 44 45 47 48 50 51 49 49 49 47 45 47 49 48 48 49 49 48 48 50 53 55 55 53 51 50 47 45 46 48 49 49 47 46
41 46 45 43 46 49 54 57 54 48 47 51 54 58 66 72 70 68 66 63 65 68 67 69 73 73 71 69 65 64 70 74 72 72 70 63 59 55 47 44 46 45 44 46 44 42 42 40 39 41 42 41 40 41 41 42 44 45 45 45 46 47 45 45 47 48 49 51 51 51 50 49 48 47 46 48 50 50 50 49 50 50 50 52 55 55 53 51 51 50 49 53 56 58 56 51 50